Location: Berlise
(49.6641°N, 4.1077°E)
Time: 02:18:03
(UTC+00:00)

Cosmos 972 Rocket - Pass Details

Date: 27 January 2021
Orbit: 713 x 1151 km, 75.8° (Epoch: 28 February)

Event Time Altitude Azimuth Distance (km) Brightness Sun altitude
Rises 05:14:13 0° 197° (SSW) 3,719 7.4 -20.7°
Reaches altitude 10° 05:16:53 10° 197° (SSW) 2,708 6.7 -20.2°
Maximum altitude 05:23:06 86° 111° (ESE) 898 4.3 -19.2°
Drops below altitude 10° 05:28:40 10° 22° (NNE) 2,427 6.8 -18.3°
Sets 05:30:57 0° 22° (NNE) 3,309 7.5 -18.0°
